Location: Unnamed
(48.6007°N, 2.4808°E)
Time: 05:58:11
(UTC+02:00)

DOVE 4 - Visible Passes

Search period start: 29 March 2023 00:00
Search period end: 08 April 2023 00:00
Orbit: 586 x 791 km, 97.8° (Epoch: 28 March)

Date Brightness Start Highest point End Pass type
(mag) Time Alt. Az. Time Alt. Az. Time Alt. Az.
29 Mar ? 01:26:32 10° N 01:28:18 21° N 01:28:18 21° N visible
30 Mar ? 00:27:26 10° NNE 00:28:42 18° NNE 00:28:42 18° NNE visible
30 Mar ? 02:05:37 10° N 02:07:18 17° NNW 02:07:18 17° NNW visible
31 Mar ? 01:05:53 10° N 01:07:41 22° N 01:07:41 22° N visible
31 Mar ? 02:45:53 10° NW 02:46:16 10° NW 02:46:16 10° NW visible
01 Apr ? 00:07:06 10° NNE 00:08:03 15° NE 00:08:03 15° NE visible
01 Apr ? 01:44:43 10° N 01:46:39 21° NNW 01:46:39 21° NNW visible
02 Apr ? 00:45:18 10° NNE 00:47:01 22° NNE 00:47:01 22° NNE visible
02 Apr ? 02:24:08 10° NNW 02:25:36 14° NW 02:25:36 14° NW visible
02 Apr ? 23:46:55 10° NE 23:47:22 12° NE 23:47:22 12° NE visible
03 Apr ? 01:23:54 10° N 01:25:58 24° N 01:25:58 24° N visible
04 Apr ? 00:24:47 10° NNE 00:26:19 20° NNE 00:26:19 20° NNE visible
04 Apr ? 02:02:57 10° NNW 02:04:54 18° NNW 02:04:54 18° NNW visible
05 Apr ? 01:03:10 10° N 01:05:14 25° N 01:05:14 25° N visible
05 Apr ? 02:43:17 10° NW 02:43:50 11° NW 02:43:50 11° NW visible
06 Apr ? 00:04:23 10° NNE 00:05:34 16° NE 00:05:34 16° NE visible
06 Apr ? 01:41:58 10° N 01:44:09 23° NNW 01:44:09 23° NNW visible
07 Apr ? 00:42:30 10° NNE 00:44:28 25° NNE 00:44:28 25° NNE visible
07 Apr ? 02:21:21 10° NNW 02:23:04 15° NW 02:23:04 15° NW visible
07 Apr ? 23:44:11 10° NE 23:44:47 12° NE 23:44:47 12° NE visible
